Flag for U.S.A. Weather past 2 weeks in Lewiston, Idaho, U.S.A.

Now
51 °F

Clear.


Feels Like: 49 °F
Forecast: 40 / 58 °F
Wind: 7 mph from Southeast

Location: Lewiston-Nez Perce County Airport

Current Time: Jan 26, 2015 at 2:28:35 AM

Latest Report: Jan 26, 2015 at 1:56 AM


Visibility: 10 mi

Pressure: 30.15 "Hg

Humidity: 56%

Dew point: 36 °F

Location of LewistonLocation

Historic Weather in Lewiston — Graph

°F

Lewiston temperature yesterday

Maximum temperature yesterday: 60 °F (at 2:56 PM)
Minimum temperature yesterday: 45 °F (at 5:56 AM)
Average temperature yesterday: 52 °F

Past Weeks' High & Low Weather Summary

 TemperatureHumidityPressure
High60 °F (Jan 25, 2:56 PM)100% (Jan 13, 1:56 AM)30.58 "Hg (Jan 13, 1:56 AM)
Low27 °F (Jan 15, 3:56 AM)47% (Jan 25, 2:56 PM)29.86 "Hg (Jan 18, 1:56 AM)
Average40 °F79%30.32 "Hg
* Reported Jan 11 12:56 AM — Jan 26 12:56 AM, Lewiston, Weather by CustomWeather, © 2014

Note: Actual official high and low records may vary slightly from our data, if they occured in-between our weather recording intervals... More about our weather records

Advertising

Lewiston weather history for previous 24 hours

 ConditionsComfort  
Time TempWeatherWind HumidityBarometerVisibility
12:56 AM
Jan 26
49 °FClear.10 mph64%30.16 "Hg10 mi
11:56 PM
Jan 25
50 °FClear.7 mph61%30.17 "Hg10 mi
10:56 PM51 °FClear.12 mph59%30.18 "Hg10 mi
9:56 PM50 °FClear.9 mph63%30.18 "Hg10 mi
8:56 PM52 °FClear.10 mph59%30.18 "Hg10 mi
7:56 PM54 °FClear.8 mph55%30.18 "Hg10 mi
6:56 PM54 °FClear.15 mph55%30.19 "Hg10 mi
5:56 PM53 °FClear.14 mph59%30.22 "Hg10 mi
4:56 PM53 °FClear.14 mph61%30.20 "Hg10 mi
3:56 PM58 °FSunny.16 mph50%30.20 "Hg10 mi
2:56 PM60 °FSunny.16 mph47%30.20 "Hg10 mi
1:56 PM59 °FSunny.7 mph49%30.21 "Hg10 mi
12:56 PM57 °FSunny.7 mph60%30.24 "Hg10 mi
11:56 AM55 °FSunny.12 mph55%30.27 "Hg10 mi
10:56 AM52 °FSunny.5 mph61%30.28 "Hg10 mi
9:56 AM51 °FSunny.6 mph61%30.28 "Hg10 mi
8:56 AM48 °FSunny.No wind68%30.29 "Hg10 mi
7:56 AM47 °FSunny.5 mph69%30.28 "Hg10 mi
6:56 AM45 °FClear.No wind74%30.29 "Hg10 mi
5:56 AM45 °FClear.3 mph76%30.29 "Hg10 mi
4:56 AM49 °FClear.3 mph66%30.27 "Hg10 mi
3:56 AM47 °FClear.No wind74%30.27 "Hg10 mi
2:56 AM49 °FClear.No wind69%30.29 "Hg10 mi
Weather by CustomWeather, © 2014

See weather overviewHow to use our weather pages